TimeCST,TemperatureF,Dew PointF,Humidity,Sea Level PressureIn,VisibilityMPH,Wind Direction,Wind SpeedMPH,Gust SpeedMPH,PrecipitationIn,Events,Conditions,WindDirDegrees,DateUTC
12:53 AM,23.0,19.9,88,30.28,3.0,ESE,5.8,-,N/A,,Clear,120,2013-03-08 06:53:00
1:53 AM,21.9,19.0,89,30.28,3.0,ESE,4.6,-,N/A,,Clear,110,2013-03-08 07:53:00
2:53 AM,19.9,17.1,89,30.28,3.0,East,5.8,-,N/A,,Clear,100,2013-03-08 08:53:00
3:53 AM,21.9,19.0,89,30.26,3.0,SE,5.8,-,N/A,,Clear,130,2013-03-08 09:53:00
4:53 AM,19.9,17.1,89,30.27,4.0,ESE,5.8,-,N/A,,Clear,120,2013-03-08 10:53:00
5:53 AM,19.9,17.1,89,30.27,4.0,East,5.8,-,N/A,,Clear,90,2013-03-08 11:53:00
6:53 AM,21.0,17.1,85,30.27,3.0,East,5.8,-,N/A,,Clear,90,2013-03-08 12:53:00
7:53 AM,21.9,19.0,89,30.27,3.0,East,8.1,-,N/A,,Clear,100,2013-03-08 13:53:00
8:53 AM,26.1,21.9,84,30.28,4.0,ESE,9.2,-,N/A,,Clear,120,2013-03-08 14:53:00
9:53 AM,30.0,24.1,79,30.27,5.0,SE,10.4,-,N/A,,Haze,130,2013-03-08 15:53:00
10:53 AM,33.1,26.1,75,30.25,6.0,ESE,9.2,-,N/A,,Haze,110,2013-03-08 16:53:00
11:53 AM,35.1,28.0,76,30.24,6.0,ESE,8.1,-,N/A,,Haze,120,2013-03-08 17:53:00
12:53 PM,37.0,30.0,76,30.21,6.0,ESE,11.5,-,N/A,,Haze,110,2013-03-08 18:53:00
1:53 PM,39.9,32.0,73,30.17,6.0,East,11.5,-,N/A,,Haze,100,2013-03-08 19:53:00
2:53 PM,39.9,33.1,77,30.16,6.0,East,16.1,-,N/A,,Haze,100,2013-03-08 20:53:00
3:53 PM,37.9,32.0,79,30.14,5.0,East,16.1,-,N/A,,Haze,100,2013-03-08 21:53:00
4:53 PM,37.9,33.1,83,30.12,4.0,East,11.5,-,N/A,,Haze,90,2013-03-08 22:53:00
5:53 PM,37.0,32.0,82,30.11,3.0,East,13.8,-,N/A,,Haze,100,2013-03-08 23:53:00
6:53 PM,36.0,30.9,82,30.09,5.0,ESE,15.0,-,0.00,,Haze,120,2013-03-09 00:53:00
7:53 PM,35.1,30.9,85,30.06,5.0,ESE,17.3,24.2,N/A,,Mostly Cloudy,120,2013-03-09 01:53:00
8:53 PM,36.0,30.0,79,30.07,7.0,SE,18.4,24.2,N/A,,Overcast,130,2013-03-09 02:53:00
9:21 PM,35.6,30.2,81,30.01,7.0,SE,21.9,27.6,N/A,,Overcast,130,2013-03-09 03:21:00
9:36 PM,35.6,30.2,81,30.01,7.0,SE,16.1,24.2,N/A,,Overcast,130,2013-03-09 03:36:00
9:53 PM,36.0,30.9,82,30.08,3.0,SSE,15.0,23.0,0.01,Rain,Rain,150,2013-03-09 03:53:00
10:03 PM,35.6,30.2,81,30.04,2.5,SSE,17.3,-,0.03,Rain,Rain,150,2013-03-09 04:03:00
10:19 PM,35.6,32.0,87,30.03,2.5,SE,10.4,-,0.11,Rain,Rain,140,2013-03-09 04:19:00
10:53 PM,35.1,32.0,89,30.04,4.0,ESE,15.0,-,0.21,Rain,Light Rain,120,2013-03-09 04:53:00
11:41 PM,35.6,32.0,87,29.97,4.0,SE,15.0,-,0.02,,Overcast,130,2013-03-09 05:41:00
11:53 PM,35.1,32.0,89,30.01,4.0,ESE,12.7,-,0.02,,Overcast,120,2013-03-09 05:53:00
11:56 PM,35.6,32.0,87,29.96,4.0,ESE,16.1,-,N/A,,Overcast,120,2013-03-09 05:56:00